WARNING - Please set your current conddition source. Defaulted to metar

Welkom op de weersite van Veghel e.o.

Voor vele een welkome verandering , het regent weer.

Temperatuur weer onder 25 graden dus;

Einde aan de hittegolf 2018.

Deze begon op 12 juli t/m 8 augustus totaal van 28 dagen.

Het warmst was het op 26 en 27 juli met 36.6 graden.


Webcam Veghel  Webcam Veghel


Onweer radar Meer informatie blitzortung!


Regen radar Meer informatie rain snow radar


U vindt ons ook hier:

Het Weer Aktueel

European Weather Network

Weather Underground

Benelux Weer Netwerk

AWEKAS


Het weer levert geen direct gevaar op.    Er zijn geen waarschuwingen afgegeven.

Weather Underground Historische gegevens

Dagelijkse Samenvatting augustus 14, 2018 Eenheden:  Metrisch    Engels   Beide
« Vorige Dag
Volgende Dag »
Dagelijkse Wekelijkse Maandelijkse Jaarlijkse Aangepaste
  Huidig: Hoog: Laag: Gemiddeld:
Temperatuur: -5.7 °C -17.8 °C -8.8 °C -7.9 °C
Dauwpunt: -9.6 °C -17.8 °C -9.8 °C -8.9 °C
Vochtigheid: 65 % Humidity % 63 % 88 %
Wind snelheid: 20.8 km/h 0 km/h 7.7 km/h 15 km/h
Windvlaag: 23.3 km/h 0 km/h - -
Wind:NW - - WSW
Luchtdruk: 34313.7 hPa 0 hPa 34120.7 hPa -
Neerslag: 38.1 mm      
Historical Graphs
 
 
Tabel voor augustus 14, 2018
Tijd Temperatuur Dauwpunt Luchtdruk Wind Wind snelheid Windvlaag Vochtigheid Regenval per uur
-17.8 °C -17.8 °C 0 hPa Calm     Humidity % 0 mm
00:00 -8.8 °C -9.2 °C 34120.7 hPa SSW 7.7 km/h 7.7 km/h 95 % 0 mm
00:15 -8.8 °C -9.2 °C 34130.9 hPa SSW 10.3 km/h 10.3 km/h 96 % 0 mm
00:20 -8.8 °C -9.2 °C 34130.9 hPa SW 10.3 km/h 10.3 km/h 96 % 0 mm
00:25 -8.8 °C -9.1 °C 34130.9 hPa SW 10.3 km/h 12.9 km/h 96 % 0 mm
00:30 -8.7 °C -9.1 °C 34120.7 hPa SW 10.3 km/h 12.9 km/h 96 % 0 mm
00:35 -8.7 °C -9.1 °C 34130.9 hPa SW 10.3 km/h 10.3 km/h 96 % 0 mm
00:40 -8.7 °C -9.1 °C 34130.9 hPa SSW 10.3 km/h 15.6 km/h 96 % 0 mm
00:45 -8.7 °C -9 °C 34130.9 hPa SW 10.3 km/h 10.3 km/h 96 % 0 mm
00:50 -8.6 °C -9 °C 34130.9 hPa SW 10.3 km/h 10.3 km/h 96 % 0 mm
00:55 -8.6 °C -8.9 °C 34130.9 hPa SW 12.9 km/h 12.9 km/h 96 % 0 mm
01:00 -8.6 °C -8.9 °C 34130.9 hPa SW 12.9 km/h 15.6 km/h 96 % 0 mm
01:05 -8.6 °C -8.9 °C 34130.9 hPa SW 12.9 km/h 15.6 km/h 96 % 0 mm
01:10 -8.6 °C -8.9 °C 34144.4 hPa SW 12.9 km/h 15.6 km/h 96 % 0 mm
01:15 -8.6 °C -8.9 °C 34144.4 hPa SW 12.9 km/h 15.6 km/h 96 % 0 mm
01:20 -8.6 °C -8.9 °C 34144.4 hPa SSW 12.9 km/h 12.9 km/h 96 % 0 mm
01:25 -8.6 °C -8.9 °C 34144.4 hPa SW 12.9 km/h 12.9 km/h 96 % 0 mm
01:30 -8.6 °C -8.9 °C 34144.4 hPa SW 12.9 km/h 12.9 km/h 96 % 0 mm
01:35 -8.6 °C -8.9 °C 34144.4 hPa SW 12.9 km/h 15.6 km/h 96 % 0 mm
01:40 -8.6 °C -8.9 °C 34144.4 hPa SW 12.9 km/h 15.6 km/h 96 % 0 mm
01:45 -8.6 °C -8.9 °C 34144.4 hPa SW 12.9 km/h 15.6 km/h 96 % 0 mm
01:50 -8.6 °C -9 °C 34144.4 hPa SW 12.9 km/h 12.9 km/h 96 % 0 mm
01:55 -8.6 °C -9 °C 34144.4 hPa SSW 12.9 km/h 12.9 km/h 96 % 0 mm
02:00 -8.6 °C -9 °C 34144.4 hPa SW 12.9 km/h 18.2 km/h 96 % 0 mm
02:05 -8.6 °C -8.9 °C 34144.4 hPa SW 12.9 km/h 18.2 km/h 96 % 0 mm
02:10 -8.6 °C -8.9 °C 34144.4 hPa SW 15.6 km/h 15.6 km/h 96 % 0 mm
02:15 -8.6 °C -8.9 °C 34144.4 hPa SW 12.9 km/h 15.6 km/h 96 % 0 mm
02:20 -8.6 °C -8.9 °C 34144.4 hPa SW 12.9 km/h 12.9 km/h 96 % 0 mm
02:25 -8.6 °C -8.9 °C 34144.4 hPa SSW 12.9 km/h 12.9 km/h 96 % 0 mm
02:30 -8.6 °C -8.9 °C 34144.4 hPa SW 12.9 km/h 12.9 km/h 96 % 0 mm
02:35 -8.6 °C -8.9 °C 34144.4 hPa SW 12.9 km/h 12.9 km/h 96 % 0 mm
02:40 -8.6 °C -8.9 °C 34144.4 hPa SW 12.9 km/h 12.9 km/h 96 % 0 mm
02:45 -8.6 °C -8.9 °C 34144.4 hPa SW 12.9 km/h 12.9 km/h 96 % 0 mm
02:50 -8.6 °C -8.9 °C 34144.4 hPa SSW 10.3 km/h 10.3 km/h 96 % 0 mm
02:55 -8.6 °C -8.9 °C 34144.4 hPa SW 10.3 km/h 10.3 km/h 96 % 0 mm
03:00 -8.6 °C -8.9 °C 34144.4 hPa SW 12.9 km/h 12.9 km/h 96 % 0 mm
03:05 -8.5 °C -8.9 °C 34144.4 hPa SW 12.9 km/h 12.9 km/h 96 % 0 mm
03:10 -8.5 °C -8.9 °C 34144.4 hPa SW 12.9 km/h 12.9 km/h 96 % 0 mm
03:15 -8.5 °C -8.8 °C 34144.4 hPa SW 12.9 km/h 18.2 km/h 96 % 0 mm
03:20 -8.4 °C -8.8 °C 34144.4 hPa SW 15.6 km/h 15.6 km/h 96 % 0 mm
03:25 -8.4 °C -8.8 °C 34144.4 hPa SW 15.6 km/h 18.2 km/h 96 % 0 mm
03:30 -8.4 °C -8.8 °C 34144.4 hPa SW 18.2 km/h 18.2 km/h 96 % 0 mm
03:35 -8.4 °C -8.8 °C 34154.6 hPa WSW 15.6 km/h 18.2 km/h 96 % 0 mm
03:40 -8.4 °C -8.8 °C 34154.6 hPa WSW 18.2 km/h 18.2 km/h 96 % 0 mm
03:45 -8.4 °C -8.8 °C 34154.6 hPa SW 18.2 km/h 18.2 km/h 96 % 0 mm
03:50 -8.4 °C -8.8 °C 34154.6 hPa SW 15.6 km/h 18.2 km/h 96 % 0 mm
03:55 -8.4 °C -8.8 °C 34154.6 hPa SSW 15.6 km/h 18.2 km/h 96 % 0 mm
04:00 -8.4 °C -8.8 °C 34154.6 hPa WSW 15.6 km/h 15.6 km/h 96 % 0 mm
04:15 -8.3 °C -8.7 °C 34154.6 hPa SW 18.2 km/h 18.2 km/h 96 % 0 mm
04:20 -8.3 °C -8.7 °C 34164.7 hPa WSW 18.2 km/h 25.9 km/h 96 % 0 mm
04:25 -8.3 °C -8.7 °C 34164.7 hPa SW 18.2 km/h 25.9 km/h 96 % 0 mm
04:30 -8.3 °C -8.7 °C 34164.7 hPa SW 18.2 km/h 25.9 km/h 96 % 0 mm
04:35 -8.3 °C -8.7 °C 34164.7 hPa SW 15.6 km/h 23.3 km/h 96 % 0 mm
04:40 -8.2 °C -8.6 °C 34164.7 hPa SW 18.2 km/h 23.3 km/h 96 % 0 mm
04:45 -8.2 °C -8.6 °C 34164.7 hPa SW 18.2 km/h 18.2 km/h 96 % 0 mm
04:50 -8.2 °C -8.6 °C 34164.7 hPa SW 18.2 km/h 18.2 km/h 96 % 0 mm
05:00 -8.2 °C -8.6 °C 34164.7 hPa SW 18.2 km/h 25.9 km/h 96 % 0 mm
05:05 -8.2 °C -8.6 °C 34164.7 hPa SW 18.2 km/h 25.9 km/h 96 % 0 mm
05:10 -8.2 °C -8.7 °C 34164.7 hPa SW 18.2 km/h 18.2 km/h 95 % 0 mm
05:15 -8.2 °C -8.7 °C 34164.7 hPa WSW 15.6 km/h 18.2 km/h 95 % 0 mm
05:20 -8.2 °C -8.7 °C 34164.7 hPa SW 15.6 km/h 15.6 km/h 95 % 175.26 mm
05:25 -8.2 °C -8.7 °C 34164.7 hPa SW 15.6 km/h 15.6 km/h 95 % 83.82 mm
05:30 -8.2 °C -8.6 °C 34164.7 hPa SW 15.6 km/h 15.6 km/h 96 % 38.1 mm
05:35 -8.2 °C -8.6 °C 34164.7 hPa SW 18.2 km/h 18.2 km/h 96 % 25.4 mm
05:40 -8.2 °C -8.6 °C 34164.7 hPa WSW 15.6 km/h 15.6 km/h 96 % 0 mm
05:45 -8.2 °C -8.6 °C 34178.3 hPa WNW 12.9 km/h 15.6 km/h 96 % 0 mm
05:50 -8.2 °C -8.6 °C 34178.3 hPa West 12.9 km/h 12.9 km/h 96 % 142.24 mm
05:55 -8.2 °C -8.6 °C 34178.3 hPa SW 10.3 km/h 12.9 km/h 96 % 50.8 mm
06:00 -8.2 °C -8.6 °C 34178.3 hPa West 12.9 km/h 12.9 km/h 96 % 33.02 mm
06:05 -8.2 °C -8.6 °C 34178.3 hPa SW 15.6 km/h 18.2 km/h 96 % 0 mm
06:10 -8.2 °C -8.6 °C 34178.3 hPa WSW 15.6 km/h 15.6 km/h 96 % 0 mm
06:15 -8.2 °C -8.6 °C 34178.3 hPa SW 15.6 km/h 18.2 km/h 96 % 0 mm
06:20 -8.2 °C -8.6 °C 34178.3 hPa SW 15.6 km/h 15.6 km/h 96 % 0 mm
06:25 -8.2 °C -8.6 °C 34178.3 hPa WSW 15.6 km/h 15.6 km/h 96 % 0 mm
06:30 -8.2 °C -8.6 °C 34188.4 hPa SW 15.6 km/h 15.6 km/h 96 % 0 mm
06:35 -8.2 °C -8.6 °C 34188.4 hPa WSW 12.9 km/h 15.6 km/h 96 % 0 mm
06:40 -8.2 °C -8.6 °C 34188.4 hPa SW 12.9 km/h 18.2 km/h 96 % 0 mm
06:45 -8.2 °C -8.6 °C 34188.4 hPa WSW 15.6 km/h 18.2 km/h 96 % 0 mm
06:50 -8.2 °C -8.6 °C 34198.6 hPa WSW 12.9 km/h 18.2 km/h 96 % 0 mm
06:55 -8.2 °C -8.6 °C 34198.6 hPa WSW 15.6 km/h 18.2 km/h 96 % 0 mm
07:00 -8.2 °C -8.6 °C 34198.6 hPa SSW 12.9 km/h 12.9 km/h 96 % 0 mm
07:15 -8.2 °C -8.6 °C 34212.1 hPa WSW 12.9 km/h 12.9 km/h 96 % 0 mm
07:20 -8.2 °C -8.6 °C 34212.1 hPa WSW 12.9 km/h 12.9 km/h 96 % 0 mm
07:25 -8.2 °C -8.5 °C 34212.1 hPa WSW 12.9 km/h 12.9 km/h 96 % 0 mm
07:30 -8.2 °C -8.5 °C 34222.3 hPa West 12.9 km/h 12.9 km/h 96 % 0 mm
07:35 -8.1 °C -8.5 °C 34222.3 hPa West 12.9 km/h 12.9 km/h 96 % 0 mm
07:40 -8.1 °C -8.5 °C 34222.3 hPa SW 12.9 km/h 12.9 km/h 96 % 0 mm
07:45 -8.1 °C -8.4 °C 34222.3 hPa SW 12.9 km/h 12.9 km/h 96 % 0 mm
07:50 -8.1 °C -8.5 °C 34222.3 hPa West 12.9 km/h 15.6 km/h 95 % 0 mm
07:55 -8.1 °C -8.6 °C 34235.8 hPa West 15.6 km/h 20.8 km/h 94 % 0 mm
08:00 -8 °C -8.6 °C 34222.3 hPa West 15.6 km/h 18.2 km/h 94 % 0 mm
08:05 -8 °C -8.7 °C 34235.8 hPa West 15.6 km/h 18.2 km/h 93 % 0 mm
08:10 -8 °C -8.8 °C 34235.8 hPa WNW 15.6 km/h 15.6 km/h 92 % 0 mm
08:15 -8 °C -8.7 °C 34235.8 hPa WSW 12.9 km/h 15.6 km/h 92 % 0 mm
08:20 -7.9 °C -8.7 °C 34246 hPa WNW 10.3 km/h 10.3 km/h 92 % 0 mm
08:25 -7.9 °C -8.8 °C 34246 hPa West 10.3 km/h 10.3 km/h 91 % 0 mm
08:30 -7.9 °C -8.8 °C 34246 hPa WSW 12.9 km/h 12.9 km/h 91 % 0 mm
08:35 -7.8 °C -8.7 °C 34246 hPa West 10.3 km/h 12.9 km/h 91 % 0 mm
08:40 -7.8 °C -8.7 °C 34246 hPa West 10.3 km/h 25.9 km/h 90 % 0 mm
08:45 -7.8 °C -8.8 °C 34256.2 hPa West 12.9 km/h 25.9 km/h 89 % 0 mm
08:50 -7.8 °C -8.8 °C 34256.2 hPa SW 15.6 km/h 15.6 km/h 89 % 0 mm
08:55 -7.8 °C -8.8 °C 34256.2 hPa West 12.9 km/h 15.6 km/h 89 % 0 mm
09:00 -7.8 °C -8.9 °C 34256.2 hPa WNW 12.9 km/h 18.2 km/h 88 % 0 mm
09:05 -7.8 °C -8.8 °C 34256.2 hPa WNW 12.9 km/h 18.2 km/h 89 % 0 mm
09:10 -7.7 °C -8.7 °C 34256.2 hPa West 10.3 km/h 15.6 km/h 89 % 0 mm
09:15 -7.6 °C -8.8 °C 34269.7 hPa West 12.9 km/h 15.6 km/h 87 % 0 mm
09:20 -7.4 °C -8.7 °C 34269.7 hPa WNW 15.6 km/h 15.6 km/h 86 % 0 mm
09:25 -7.3 °C -8.9 °C 34269.7 hPa WNW 15.6 km/h 25.9 km/h 83 % 0 mm
09:30 -7.2 °C -8.7 °C 34269.7 hPa West 15.6 km/h 18.2 km/h 84 % 0 mm
09:35 -7.2 °C -9 °C 34269.7 hPa WNW 18.2 km/h 33.6 km/h 81 % 0 mm
09:40 -7.3 °C -9.1 °C 34279.9 hPa West 18.2 km/h 25.9 km/h 82 % 0 mm
09:45 -7.3 °C -9.2 °C 34279.9 hPa West 20.8 km/h 25.9 km/h 81 % 0 mm
09:50 -7.3 °C -8.9 °C 34279.9 hPa West 18.2 km/h 18.2 km/h 83 % 0 mm
09:55 -7.1 °C -8.8 °C 34279.9 hPa West 15.6 km/h 23.3 km/h 82 % 0 mm
10:00 -6.9 °C -8.9 °C 34279.9 hPa WNW 18.2 km/h 23.3 km/h 80 % 0 mm
10:15 -7.1 °C -9.1 °C 34293.4 hPa West 18.2 km/h 20.8 km/h 80 % 0 mm
10:20 -7.1 °C -9.1 °C 34293.4 hPa WNW 18.2 km/h 20.8 km/h 79 % 0 mm
10:25 -7 °C -9 °C 34293.4 hPa West 15.6 km/h 15.6 km/h 80 % 0 mm
10:30 -6.8 °C -9.1 °C 34293.4 hPa West 15.6 km/h 23.3 km/h 78 % 0 mm
10:35 -6.8 °C -9.1 °C 34293.4 hPa WSW 18.2 km/h 20.8 km/h 77 % 0 mm
10:40 -6.8 °C -9.2 °C 34293.4 hPa NW 18.2 km/h 20.8 km/h 76 % 0 mm
10:45 -6.7 °C -9.2 °C 34293.4 hPa WNW 18.2 km/h 18.2 km/h 75 % 0 mm
10:50 -6.6 °C -9.1 °C 34293.4 hPa NNW 18.2 km/h 18.2 km/h 75 % 0 mm
10:55 -6.5 °C -9.1 °C 34293.4 hPa West 15.6 km/h 15.6 km/h 74 % 0 mm
11:00 -6.6 °C -9.4 °C 34293.4 hPa WNW 15.6 km/h 15.6 km/h 72 % 0 mm
11:05 -6.6 °C -9.4 °C 34303.6 hPa WNW 18.2 km/h 23.3 km/h 73 % 0 mm
11:10 -6.6 °C -9.3 °C 34303.6 hPa WNW 20.8 km/h 20.8 km/h 73 % 0 mm
11:15 -6.4 °C -9.2 °C 34303.6 hPa WNW 15.6 km/h 20.8 km/h 73 % 0 mm
11:20 -6.2 °C -9.2 °C 34303.6 hPa NW 15.6 km/h 18.2 km/h 71 % 0 mm
11:25 -6.2 °C -9.5 °C 34303.6 hPa WNW 20.8 km/h 25.9 km/h 69 % 0 mm
11:30 -6.3 °C -9.5 °C 34303.6 hPa WNW 18.2 km/h 18.2 km/h 70 % 0 mm
11:35 -6.4 °C -9.4 °C 34303.6 hPa WNW 15.6 km/h 18.2 km/h 71 % 0 mm
11:40 -6.3 °C -9.2 °C 34303.6 hPa West 15.6 km/h 15.6 km/h 72 % 0 mm
11:45 -6.2 °C -9.3 °C 34303.6 hPa West 18.2 km/h 18.2 km/h 70 % 0 mm
11:50 -6.1 °C -9.3 °C 34303.6 hPa West 15.6 km/h 23.3 km/h 70 % 0 mm
11:55 -6 °C -9.1 °C 34303.6 hPa North 18.2 km/h 31.1 km/h 71 % 0 mm
12:00 -6 °C -9.4 °C 34303.6 hPa WNW 23.3 km/h 28.5 km/h 68 % 0 mm
12:05 -5.9 °C -9.2 °C 34303.6 hPa NW 20.8 km/h 28.5 km/h 69 % 0 mm
12:10 -5.8 °C -9.3 °C 34303.6 hPa West 18.2 km/h 28.5 km/h 67 % 0 mm
12:15 -5.8 °C -9.3 °C 34313.7 hPa West 20.8 km/h 28.5 km/h 68 % 0 mm
12:20 -5.8 °C -9.3 °C 34313.7 hPa West 20.8 km/h 25.9 km/h 68 % 0 mm
12:25 -5.7 °C -9.4 °C 34313.7 hPa WSW 20.8 km/h 25.9 km/h 66 % 0 mm
12:30 -5.7 °C -9.6 °C 34313.7 hPa WSW 18.2 km/h 18.2 km/h 65 % 0 mm
12:35 -5.7 °C -9.8 °C 34313.7 hPa WNW 18.2 km/h 25.9 km/h 63 % 0 mm
12:40 -5.6 °C -9.7 °C 34313.7 hPa WSW 23.3 km/h 23.3 km/h 63 % 0 mm
12:45 -5.6 °C -9.7 °C 34313.7 hPa WNW 20.8 km/h 23.3 km/h 63 % 0 mm
12:50 -5.7 °C -9.6 °C 34313.7 hPa NW 20.8 km/h 23.3 km/h 65 % 0 mm
Veghelsweer
Gegevens verzameld door Weather Underground - 2.25 mb

Script ontwikkeld door  Jim McMurry - jmcmurry@mwt.net Aangepast voor de template door  Wim van der Kuil - Leuven-Template.eu

Apparatuur in gebruik:

Weerstation
Davis VP2

Weerprogramma
WeatherLink

Weercomputer
Sponsor

Webleverancier
My provider

Davis VP2

WeatherLink

Sponsor

My provider